Satellite: CO-66
Catalog number: 32791
Epoch time:      11132.17559316
Element set:     976
Inclination:      097.8500 deg
RA of node:       196.6102 deg
Eccentricity:    0.0014904
Arg of perigee:   294.6905 deg
Mean anomaly:     065.2730 deg
Mean motion:   14.82077176 rev/day
Decay rate:       7.26e-06 rev/day^2
Epoch rev:           16417
Checksum:              318

Satellite: RS-30
Catalog number: 32953
Epoch time:      11132.65193909
Element set:     720
Inclination:      082.5031 deg
RA of node:       184.8131 deg
Eccentricity:    0.0020486
Arg of perigee:   104.0224 deg
Mean anomaly:     256.3136 deg
Mean motion:   12.43012564 rev/day
Decay rate:        1.0e-07 rev/day^2
Epoch rev:           13467
Checksum:              249

Satellite: TACSAT-3
Catalog number: 35001
Epoch time:      11131.94392030
Element set:    0608
Inclination:      040.4544 deg
RA of node:       032.7083 deg
Eccentricity:    0.0024704
Arg of perigee:   298.5263 deg
Mean anomaly:     061.3069 deg
Mean motion:   15.48018459 rev/day
Decay rate:     1.8759e-04 rev/day^2
Epoch rev:           11146
Checksum:              280

Satellite: PHARMSAT
Catalog number: 35002
Epoch time:      11132.87095255
Element set:     547
Inclination:      040.4719 deg
RA of node:       024.6773 deg
Eccentricity:    0.0026205
Arg of perigee:   310.7303 deg
Mean anomaly:     049.1248 deg
Mean motion:   15.47806423 rev/day
Decay rate:     1.5373e-04 rev/day^2
Epoch rev:           11163
Checksum:              267

Satellite: HAWKSAT1
Catalog number: 35003
Epoch time:      11132.77534478
Element set:     615
Inclination:      040.4561 deg
RA of node:       001.4338 deg
Eccentricity:    0.0023797
Arg of perigee:   330.5111 deg
Mean anomaly:     029.4362 deg
Mean motion:   15.61665837 rev/day
Decay rate:     6.6688e-04 rev/day^2
Epoch rev:           11188
Checksum:              292

Satellite: CP6
Catalog number: 35004
Epoch time:      11131.84839786
Element set:    0618
Inclination:      040.4556 deg
RA of node:       000.3567 deg
Eccentricity:    0.0022219
Arg of perigee:   326.6734 deg
Mean anomaly:     033.2321 deg
Mean motion:   15.66467345 rev/day
Decay rate:     9.1712e-04 rev/day^2
Epoch rev:           11180
Checksum:              284

Satellite: METEOR-M
Catalog number: 35865
Epoch time:      11132.75457713
Element set:     357
Inclination:      098.7088 deg
RA of node:       188.3370 deg
Eccentricity:    0.0002955
Arg of perigee:   116.9043 deg
Mean anomaly:     243.2390 deg
Mean motion:   14.21838210 rev/day
Decay rate:       1.76e-06 rev/day^2
Epoch rev:            8555
Checksum:              304

Satellite: RS-38
Catalog number: 35869
Epoch time:      11132.75897656
Element set:     355
Inclination:      098.7056 deg
RA of node:       188.3784 deg
Eccentricity:    0.0004877
Arg of perigee:   123.7116 deg
Mean anomaly:     236.4507 deg
Mean motion:   14.22010297 rev/day
Decay rate:       1.77e-06 rev/day^2
Epoch rev:            8556
Checksum:              341

/EX


_______________________________________________
Via the Keps mailing list courtesy of AMSAT-NA
http://amsat.org/mailman/listinfo/keps

--- ViaMAIL!/WC v1.60d
 * Origin: Chowdanet (401-724-4410) telnet://chowdanet.com  (1:323/120)